Terminal Aerodrome Forecast
Issued by NWS Key West, FL

Home | Current Version | Previous Version | Text Only | Print | Product List | Glossary On
Versions: 1 2 3 4 5 6 7 8 9 10 11 12 13 14 15 16 17 18 19 20 21 22 23 24 25 26 27 28 29 30 31 32 33 34 35 36 37 38 39 40 41 42 43 44 45 46 47 48 49 50
000
FTUS42 KKEY 260315 AAB
TAFEYW
TAF AMD
KEYW 260315Z 2603/2624 VRB03KT P6SM BKN045
     FM260500 29009KT P6SM SCT035 BKN045
     FM261100 28012G19KT P6SM BKN035
     FM261500 28021G29KT P6SM BKN040=

USA.gov is the U.S. government's official web portal to all federal, state and local government web resources and services.